Regional Weather Roundup
Issued by NWS

Home | Current Version | Previous Version | Text Only | Print | Product List | Glossary On
Versions: 1 2 3 4 5 6 7 8 9 10 11 12 13 14 15 16 17 18 19 20 21 22 23 24 25 26 27 28 29 30 31 32 33 34 35 36 37 38 39 40 41 42 43 44 45 46 47 48 49 50
000
ASUS43 KLSX 261007
RWRMO

WEATHER SUMMARY FOR MISSOURI
NATIONAL WEATHER SERVICE SPRINGFIELD MO
500 AM CDT SUN APR 26 2015

NOTE: "FAIR" INDICATES FEW OR NO CLOUDS BELOW 12,000 FEET WITH NO
       SIGNIFICANT WEATHER AND/OR OBSTRUCTIONS TO VISIBILITY.
       CURRENT SKY AND/OR WEATHER CONDITIONS ARE NOT AVAILABLE FOR
       CHILLICOTHE AND FARMINGTON.

MOZ001>031-035>038-043-044-053-054-261100-
...NORTHERN AND WESTERN MISSOURI...

CITY           SKY/WX    TMP DP  RH WIND       PRES   REMARKS
KANSAS CTY INT CLOUDY    48  45  89 E12       29.86S
KANSAS C DTWN  CLOUDY    49  46  90 NE9       29.86R
LEE`S SUMMIT   CLOUDY    48  45  89 NE12      29.86R
ST JOSEPH      CLOUDY    48  44  86 NE9       29.89S FOG
CHILLICOTHE      N/A     48  42  80 NE3       29.91R
KIRKSVILLE     CLOUDY    45  42  89 NE12      29.91R

$$
MOZ066>068-077>081-088>096-101>105-261100-
...SOUTHWEST MISSOURI...

CITY           SKY/WX    TMP DP  RH WIND       PRES   REMARKS
SPRINGFIELD    CLOUDY    52  49  89 NE13      29.78R
JOPLIN         CLOUDY    53  50  89 NE9       29.79R

$$
MOZ032>034-039>042-045>050-055>058-069>072-261100-
...CENTRAL MISSOURI...

CITY           SKY/WX    TMP DP  RH WIND       PRES   REMARKS
COLUMBIA       CLOUDY    47  44  90 NE9       29.86R
JEFFERSON CITY CLOUDY    48  43  82 E6        29.86R
ROLLA          CLOUDY    46  44  93 NE13      29.82R
SEDALIA          N/A     48  45  89 NE12      29.86
WHITEMAN AFB   CLOUDY    48  46  92 NE10      29.84S
WARRENSBURG    CLOUDY    46  43  87 NE12      29.85S
OSAGE BEACH    CLOUDY    48  45  87 NE12      29.83R

$$
MOZ051-052-059>065-261100-
...EAST CENTRAL MISSOURI...

CITY           SKY/WX    TMP DP  RH WIND       PRES   REMARKS
ST LOUIS INTL  CLOUDY    49  42  77 NE10      29.85R
SPIRIT OF STL  CLOUDY    47  43  86 NE7       29.84R
ST CHARLES     CLOUDY    47  41  80 NE10      29.85R

$$
MOZ072>076-082>087-097>100-106>115-261100-
...SOUTH CENTRAL AND SOUTHEAST MISSOURI...

CITY           SKY/WX    TMP DP  RH WIND       PRES   REMARKS
CAPE GIRARDEAU CLOUDY    51  48  89 N18       29.75S
FARMINGTON     CLOUDY    46  45  93 N8        29.84R
POPLAR BLUFF   CLOUDY    55  50  83 N12       29.75R
WEST PLAINS    CLOUDY    54  49  83 NE12      29.77R

$$



USA.gov is the U.S. government's official web portal to all federal, state and local government web resources and services.